Regional Weather Roundup
Issued by NWS Jackson, KY

Home | Current Version | Previous Version | Graphics & Text | Print | Product List | Glossary On
Versions: 1 2 3 4 5 6 7 8 9 10 11 12 13 14 15 16 17 18 19 20 21 22 23 24 25 26 27 28 29 30 31 32 33 34 35 36 37 38 39 40 41 42 43 44 45 46 47 48 49
000
ASUS43 KJKL 021310
RWRJKL

EAST KENTUCKY HOURLY WEATHER ROUNDUP
NATIONAL WEATHER SERVICE JACKSON KY
900 AM EDT THU JUL 02 2015

NOTE: "FAIR" INDICATES FEW OR NO CLOUDS BELOW 12,000 FEET WITH
NO SIGNIFICANT WEATHER AND/OR OBSTRUCTIONS TO VISIBILITY.

* THESE REPORTS ARE NOT UNDER NWS QUALITY CONTROL AND MAY NOT
  REPORT WEATHER SUCH AS PRECIPITATION AND FOG.

KYZ079-080-083-085-087-088-110-112-115-119-120-021400
...EASTERN KENTUCKY...

CITY           SKY/WX    TMP DP  RH WIND       PRES   REMARKS
JACKSON        LGT RAIN  66  64  93 VRB3      29.95S FOG
LONDON         LGT RAIN  68  63  84 SW7       29.96S
MONTICELLO*    CLOUDY    68  68 100 CALM      29.99S FOG
BLACK MTN*       N/A     59  59 100 SW3         N/A
PIKEVILLE APT* CLOUDY    66  66 100 S3        29.96S FOG
MOREHEAD APT*  LGT RAIN  68  66  94 SW8G15    29.94S VSB 1
$$

KYZ035-036-041-042-044-050-067-078-099-021400
...CENTRAL KENTUCKY...

CITY           SKY/WX    TMP DP  RH WIND       PRES   REMARKS
FLEMING/MASON* CLOUDY    68  68 100 S5        29.93R FOG
LEXINGTON      CLOUDY    68  67  96 S6        29.91F
FRANKFORT      CLOUDY    69  66  90 S6        29.89S FOG
$$

KYZ091>093-OHZ055-061-077-WVZ005-015-034-035-042-021400
...SOUTHERN OHIO/WEST VIRGINIA...

CITY           SKY/WX    TMP DP  RH WIND       PRES   REMARKS
COVINGTON      CLOUDY    70  68  93 S5        29.89S FOG
COLUMBUS       CLOUDY    67  59  75 E5        29.92S
DAYTON         CLOUDY    67  61  81 E6        29.92S
WILMINGTON     CLOUDY    66  63  90 E5        29.91S FOG
HUNTINGTON     FOG       67  67 100 SW3       29.92S VSB 1
CHARLESTON     FOG       68  67  96 CALM      29.94S VSB 1
BECKLEY        CLOUDY    65  61  87 CALM      30.00S FOG
BLUEFIELD      CLOUDY    65  59  81 N3        30.03S
$$

VAZ002-007-008-TNZ017-027-036-066-071-021400
...SOUTHWEST VIRGINIA/EAST TENNESSEE...

CITY           SKY/WX    TMP DP  RH WIND       PRES   REMARKS
BRISTOL        CLOUDY    68  65  90 CALM      30.00F
KNOXVILLE      HVY RAIN  68  66  93 SW13      29.98S FOG
OAK RIDGE      RAIN      69  67  93 W5        30.00R FOG
CROSSVILLE     LGT RAIN  67  64  90 CALM      30.02R FOG
NASHVILLE      HVY RAIN  70  70 100 NE3       29.94S FOG
$$

...KEY TO REMARKS...
VSB - VISIBILITY IN MILES
WCI - WIND CHILL INDEX
HX  - HEAT INDEX

$$


USA.gov is the U.S. government's official web portal to all federal, state and local government web resources and services.